STARLINK-34577

Last updated on Sat Jul 19 2025 00:02:08 GMT+0000 (Coordinated Universal Time)

1 64719U 25142Z 25199.58335648 -.01246020 00000+0 -21562-1 0 9992 2 64719 70.0000 194.6152 0003600 278.5904 198.4746 15.53416336 4211
UTC large
Height (km)
Speed (km/s)
/
Latitude / Longitude
Inclination (degrees)
Orbital Period (minutes)
Azimuth
Elevation
Range (km)
Doppler Factor

Next 0 passes for location: London (51.5072 / 0.1276)

Sorry there are no passes over London.